082  
NZUS93 KARX 062310  
HRRWXR  
 
CURRENT HOURLY OBSERVATIONS ACROSS  
MUCH OF THE UPPER MISSISSIPPI VALLEY  
NATIONAL WEATHER SERVICE LA CROSSE WI  
600 PM CDT THU MAY 06 2021  
 
   
..SOUTHEAST MINNESOTA
 
 
 
CITY SKY/WX TMP DP RH WIND PRES REMARKS  
ROCHESTER MOSUNNY 57 27 31 NW17 30.08F  
ROCHESTER/MAYO PTCLDY 57 20 23 NW13G24 30.08F  
WINONA SUNNY 59 30 33 NW10 30.07S  
AUSTIN SUNNY 57 27 30 NW15G24 30.10S  
ALBERT LEA SUNNY 59 25 27 NW9G17 30.10F  
DODGE CENTER SUNNY 57 21 24 W13G21 30.09S  
PRESTON SUNNY 56 29 36 NW16 30.09S  
OWATONNA MOSUNNY 59 27 29 NW17G24 30.09F  
FARIBAULT MOSUNNY 61 23 23 NW10G17 30.08F  

 
   
..ELSEWHERE IN MINNESOTA
 
 
 
CITY SKY/WX TMP DP RH WIND PRES REMARKS  
MINNEAPOLIS PTSUNNY 62 22 21 W9 30.05F  
INTNL FALLS MOSUNNY 48 23 37 NW18G25 30.02R  
DULUTH PTSUNNY 52 27 38 NW16G25 29.99S  
RED WING MOSUNNY 61 19 20 NW9 30.05F  
REDWOOD FALLS PTSUNNY 63 21 20 W15G21 30.07F  
MANKATO MOSUNNY 60 21 22 W9 30.09F  
WORTHINGTON MOSUNNY 60 26 27 W20 30.14F  
FAIRMONT SUNNY 61 19 19 NW16 30.12F  

 
   
..SOUTHWEST WISCONSIN
 
 
 
CITY SKY/WX TMP DP RH WIND PRES REMARKS  
LA CROSSE CLOUDY 60 29 30 NW10 30.05F  
PRAIRIE DU CHI MOSUNNY 58 29 32 W14 30.06F  
BOSCOBEL CLOUDY 58 33 39 NW7 30.06S  
LONE ROCK PTSUNNY 57 37 47 W13 30.05F  
PLATTEVILLE CLOUDY 56 39 52 CALM 30.06S  
FORT MC COY N/A 57 27 32 NW9 30.05F  
CAMP DOUGLAS PTSUNNY 57 28 33 NW15 30.03S  
MAUSTON-NEW LI MOCLDY 58 30 35 NW14G21 30.03S  
VIROQUA MOCLDY 53 37 55 NW7 30.06F  
WIS DELLS PTSUNNY 54 32 43 W10 30.04F  

 
   
..ELSEWHERE IN WISCONSIN
 
 
 
CITY SKY/WX TMP DP RH WIND PRES REMARKS  
MILWAUKEE PTSUNNY 52 35 52 SE8 30.03F  
MADISON PTSUNNY 55 33 43 NW7 30.03F  
GREEN BAY CLOUDY 57 28 33 NE7G23 29.99F  
EAU CLAIRE MOSUNNY 61 18 18 NW14G23 30.03F  
BLACK RVR FLS PTCLDY 58 24 27 NW8 30.04F  
MEDFORD MOSUNNY 52 23 32 N7 30.01F  
WAUSAU CLOUDY 58 21 24 W14G21 30.00S  
WIS RAPIDS CLOUDY 59 25 27 NW10 30.03S  
MARSHFIELD PTSUNNY 56 25 30 N10 30.02F  
RICE LAKE MOSUNNY 57 20 23 W10 30.03F  

 
   
..NORTHEAST IOWA
 
 
 
CITY SKY/WX TMP DP RH WIND PRES REMARKS  
WATERLOO MOSUNNY 62 28 27 NW18 30.09F  
DUBUQUE PTSUNNY 58 32 37 NW17G24 30.06F  
DECORAH N/A 57 28 33 NW13 30.07F  
MASON CITY MOSUNNY 59 25 27 NW16G35 30.13F  
CHARLES CITY N/A N/A N/A N/A MISG N/A  
OELWEIN MOSUNNY 57 30 35 NW20G26 30.09F  

 
   
..ELSEWHERE IN IOWA
 
 
 
CITY SKY/WX TMP DP RH WIND PRES REMARKS  
DES MOINES MOSUNNY 64 25 22 NW17G28 30.14F  
IOWA CITY CLOUDY 61 27 27 NW16G24 30.11F  
FORT DODGE SUNNY 61 23 23 NW8G21 30.14F  
MARSHALLTOWN PTSUNNY 60 29 30 NW20G30 30.11S  
CEDAR RAPIDS PTSUNNY 59 27 29 NW18G29 30.08F  

 
   
..NORTHERN ILLINOIS
 
 
 
CITY SKY/WX TMP DP RH WIND PRES REMARKS  
CHICAGO-OHARE MOSUNNY 56 32 40 NE10 30.04S  
CHICAGO-MIDWAY MOSUNNY 55 26 32 NE10 30.06R  
MOLINE PTSUNNY 61 32 33 NW13G21 30.07F  
ROCKFORD LGT RAIN 60 33 36 NW12G21 30.06F  
PEORIA SUNNY 59 30 33 VRB7G20 30.08S  

 
 
NOTE: "FAIR" INDICATES FEW OR NO CLOUDS BELOW 12,000 FEET WITH NO  
SIGNIFICANT WEATHER AND/OR OBSTRUCTIONS TO VISIBILITY. WIND  
SPEEDS ARE IN MILES-PER-HOUR.  
 
 
CLICK HERE TO GO TO PREVIOUS BULLETINS.

The Nexlab WI Page
The Nexlab IA Page
The Nexlab MN Page Main Text Page